Wind_Speed
48 48 48 48 49 48 48 47 46 45 44 43 42 40 39 37 36 34 33 32 31 30 29 27 26 25 25 25 24 24 24 23 23 23 23 24 24 24 23 23 24 23 22 23 22 22 22 22 22 22 21 22 23 24 25 24 24 23 24 24 25 26 26 27 29 27 23 23 23 22 22 23 24 23 22 21 21 21 21 20 19 19 19 19 19
48 48 47 47 48 48 48 48 47 46 45 44 44 42 40 39 37 36 35 34 33 32 31 29 28 27 27 26 26 26 25 25 24 24 25 25 25 25 25 25 25 24 24 25 25 25 25 25 24 24 24 24 25 25 26 27 27 27 27 27 27 27 27 28 29 30 28 25 25 25 25 26 27 26 25 24 23 22 23 22 21 21 20 20 20
47 46 46 46 47 47 48 48 48 47 46 46 45 44 42 40 39 38 37 35 34 33 32 31 30 29 28 28 27 27 27 26 26 27 27 27 27 27 27 27 26 26 26 26 25 26 27 27 26 25 25 26 26 26 27 27 29 31 31 31 31 30 30 30 31 32 31 28 27 27 27 28 29 28 27 26 25 24 25 24 24 23 23 22 22
47 46 46 45 45 46 48 48 48 48 47 47 46 44 43 42 41 40 39 37 36 35 33 33 32 31 30 29 29 29 28 28 28 28 29 29 28 28 29 29 29 28 28 27 27 27 28 28 27 27 27 28 28 27 27 28 29 32 33 34 35 34 33 33 34 33 34 33 31 29 28 29 30 30 29 29 28 28 27 27 27 27 26 25 24
48 47 46 45 44 45 46 47 48 48 48 47 47 45 44 43 42 41 40 40 38 37 36 35 34 33 32 31 31 31 30 30 30 30 30 30 30 30 30 30 31 31 30 29 29 29 29 29 28 27 28 29 29 28 28 29 29 31 33 34 36 37 37 37 37 37 37 38 36 33 31 31 32 32 32 32 31 30 30 30 30 30 29 28 27
48 47 46 45 45 45 45 46 47 47 48 47 46 46 45 44 43 42 41 41 40 39 38 37 36 35 34 33 33 32 32 31 31 31 31 31 31 31 32 32 32 33 33 32 32 31 31 31 29 29 30 30 30 29 29 29 30 31 33 34 34 36 38 39 40 40 40 41 40 38 36 34 34 34 34 34 34 33 33 33 33 33 33 32 30
48 47 46 46 46 45 45 45 45 45 46 46 46 45 45 45 44 43 41 41 41 40 40 39 38 37 36 35 34 34 34 33 33 33 32 33 33 33 34 34 34 34 34 34 34 34 33 32 32 31 31 31 31 30 30 30 31 31 32 33 33 35 37 38 40 41 42 42 42 41 40 38 36 36 35 36 36 37 37 37 37 37 36 35 33
47 47 47 46 46 46 45 44 43 44 44 45 45 45 45 45 44 43 42 42 42 41 40 40 39 38 37 37 36 36 36 36 35 34 34 34 34 35 35 36 36 36 35 35 35 36 36 35 35 34 34 34 33 32 32 32 32 33 32 32 33 35 36 37 39 41 42 43 42 42 41 40 39 37 36 36 39 41 41 41 41 40 38 37 35
47 47 47 47 46 45 44 44 44 44 44 45 45 45 45 45 44 44 43 42 42 41 41 40 40 40 39 39 38 38 38 38 37 36 35 35 35 36 36 36 38 38 37 37 37 37 37 37 37 36 36 35 35 34 34 34 35 35 34 34 35 36 36 37 38 40 41 43 43 42 42 42 41 39 38 39 41 42 41 41 42 41 39 39 38
47 47 47 47 46 45 44 44 44 45 45 46 46 46 46 46 45 45 44 43 42 41 41 41 41 41 41 40 39 39 40 39 38 37 36 36 36 37 37 37 38 39 39 39 38 38 37 37 37 36 36 36 36 36 36 36 37 37 36 36 37 37 38 38 39 40 41 42 43 42 43 44 43 41 41 41 40 41 41 41 42 41 40 41 40
47 47 47 46 45 44 44 44 45 45 46 46 46 46 46 46 47 46 45 44 43 42 42 42 42 42 42 41 40 40 41 40 38 38 37 37 38 39 39 39 39 39 40 40 40 39 38 38 38 37 37 37 36 36 36 37 38 38 38 38 39 39 40 41 42 42 42 44 44 43 44 45 42 41 43 42 41 41 41 41 42 41 41 42 42
46 46 45 44 44 44 44 44 44 45 46 46 46 46 46 47 47 47 47 45 44 44 43 43 43 43 42 42 42 41 41 39 39 38 38 38 38 39 40 40 40 40 40 40 40 40 40 40 39 39 39 38 37 37 37 37 37 38 38 39 40 41 41 42 43 44 45 46 46 46 46 46 43 41 42 43 42 42 42 42 42 42 43 43 43
45 44 44 43 42 42 41 41 42 43 44 45 46 46 47 47 48 48 47 46 45 45 44 44 44 44 44 44 43 42 41 39 39 39 38 37 37 38 39 39 40 40 40 40 41 41 41 41 41 42 41 40 40 40 40 39 39 39 40 41 42 42 43 43 44 45 46 47 49 50 49 47 46 44 41 41 42 43 43 43 42 42 44 44 43
44 43 42 42 41 40 40 40 40 40 40 41 43 45 47 47 48 48 47 47 47 46 46 45 44 45 45 45 44 43 42 40 39 38 38 37 36 36 37 38 39 40 40 40 40 40 41 41 42 43 42 42 43 43 43 43 42 42 43 43 44 44 45 45 46 46 46 48 50 52 50 49 49 46 43 42 44 45 45 44 43 42 43 42 40
43 42 42 41 40 40 39 39 38 38 37 38 40 42 44 46 47 47 47 47 48 47 47 46 45 45 45 45 45 44 42 40 39 38 37 36 35 35 36 37 38 39 40 40 40 40 41 41 42 43 43 43 44 44 44 45 45 45 46 47 47 47 47 48 48 47 47 48 50 50 50 49 49 48 46 46 47 47 46 46 46 44 42 41 40
42 42 42 42 41 40 40 39 38 37 37 37 39 40 41 43 44 45 46 47 47 47 47 47 46 46 45 45 45 45 43 41 40 38 36 35 35 35 36 37 38 39 39 39 40 40 40 41 42 42 42 43 43 43 44 44 46 48 49 50 50 50 51 52 50 49 49 49 50 50 50 50 50 50 49 49 49 49 47 49 49 46 43 42 43
42 42 42 42 41 40 40 39 39 38 37 38 39 38 38 39 40 42 44 45 46 47 48 47 47 47 46 46 46 45 43 41 40 39 38 36 36 36 36 37 38 39 39 39 39 40 40 39 40 40 41 41 41 41 42 43 45 48 49 51 51 53 56 55 52 51 51 51 51 51 50 51 51 52 52 52 52 51 50 52 52 48 46 46 46
41 42 42 41 41 40 40 40 39 39 39 39 39 38 37 37 37 38 40 42 43 44 45 46 46 47 47 47 47 46 45 43 42 41 40 38 37 37 37 38 39 40 40 39 39 40 40 40 39 40 41 40 40 40 40 42 45 47 48 50 51 54 57 55 53 53 53 53 53 53 52 52 51 52 54 54 54 54 54 56 55 50 48 49 48
38 40 40 40 40 40 39 40 40 39 40 39 39 38 37 36 36 36 37 39 39 40 42 43 45 46 46 47 47 47 46 44 43 42 41 40 39 39 38 39 40 40 40 40 40 40 40 39 39 39 40 40 40 40 40 42 45 46 47 49 52 56 56 53 52 54 54 54 55 54 54 53 52 52 52 53 55 56 58 59 57 53 51 50 49
34 36 37 38 39 39 39 40 40 40 39 39 38 38 37 36 36 37 37 38 38 39 39 41 42 43 44 45 46 46 46 44 43 42 41 40 39 39 39 40 41 41 40 40 40 39 38 38 38 38 38 39 39 40 40 42 45 46 47 50 53 55 54 52 52 54 54 55 56 56 55 55 54 53 52 52 54 56 58 61 61 57 53 51 49
30 31 33 35 37 38 39 39 40 39 38 37 37 37 37 37 37 37 37 38 38 38 38 39 41 41 42 43 44 44 44 43 42 41 40 39 39 38 38 40 40 39 39 40 40 39 39 38 38 37 37 38 39 39 40 41 43 45 47 50 52 52 51 51 52 53 54 55 54 53 52 52 52 51 52 53 55 57 60 63 61 57 53 52 50
28 28 29 30 32 34 36 38 38 38 37 36 36 37 37 37 37 38 38 38 38 38 37 38 39 40 40 41 41 41 41 40 39 38 38 38 37 36 37 38 37 37 38 39 39 38 37 36 35 34 35 36 36 36 37 38 40 44 46 48 49 49 49 50 52 53 55 54 49 45 45 47 48 49 51 54 58 59 60 61 59 56 55 55 55
28 28 28 27 27 28 31 34 36 36 36 35 35 35 35 36 37 38 38 38 38 38 37 37 37 38 38 38 38 38 37 36 36 36 35 35 34 34 34 34 32 32 34 35 34 33 32 32 32 33 33 34 35 35 36 37 38 40 42 44 47 48 49 51 52 54 56 53 45 42 45 47 49 52 54 56 59 60 58 58 59 58 57 56 57
25 26 27 28 27 26 26 28 31 33 34 33 33 33 34 35 36 38 38 38 37 37 36 35 35 35 36 35 36 35 34 34 34 34 33 31 29 28 27 26 25 27 28 29 29 30 31 31 33 34 35 35 35 36 37 37 38 39 41 44 47 49 50 52 53 55 57 52 43 42 47 49 50 53 55 55 57 59 58 57 58 58 57 56 56
24 24 25 26 27 26 25 25 27 29 30 31 31 32 32 34 36 37 37 37 36 35 34 33 33 33 33 33 32 32 32 33 33 32 30 28 26 25 24 24 25 27 28 28 29 31 33 34 34 35 35 36 36 37 37 38 39 41 42 44 46 48 50 52 54 55 56 52 45 44 48 50 51 53 55 56 58 60 59 57 56 56 57 56 55
20 22 22 22 23 24 24 23 24 25 27 28 28 29 30 32 34 35 36 35 35 33 31 31 30 30 30 29 28 29 30 31 31 29 27 26 25 25 26 26 26 27 27 27 28 29 31 31 32 32 32 32 33 34 35 35 36 38 39 41 42 44 46 49 51 52 52 50 48 47 50 52 52 52 53 55 59 61 60 59 57 57 57 55 55
15 17 18 19 20 21 22 21 21 22 24 24 25 27 28 30 32 33 33 32 31 30 29 29 28 28 27 25 25 26 27 28 27 26 25 23 23 23 23 22 22 22 22 22 23 24 24 25 25 25 25 26 27 29 30 32 33 35 37 38 40 41 43 45 47 48 48 48 48 48 49 50 50 49 49 53 57 60 60 60 59 59 58 56 56
15 15 16 18 19 20 20 19 20 21 22 24 26 27 27 28 29 29 28 28 28 28 27 27 26 25 24 23 24 25 25 26 26 25 24 23 21 20 19 19 19 18 18 19 19 20 20 21 22 23 25 26 28 29 30 31 32 34 35 36 38 39 41 42 44 45 47 48 48 48 48 48 49 50 50 52 55 58 60 60 60 60 59 57 56
16 16 17 17 18 18 18 19 20 21 24 26 27 27 26 26 26 24 23 23 24 24 23 23 23 22 23 24 25 25 26 26 26 25 23 22 20 19 18 18 18 17 17 17 17 17 19 21 22 25 26 27 28 28 29 30 31 31 31 33 34 36 38 40 43 45 46 47 48 48 48 47 48 50 51 52 55 57 57 57 58 59 58 57 58
15 16 17 18 18 19 19 20 21 22 24 25 25 24 24 25 24 23 22 21 21 21 22 22 22 22 23 24 24 24 25 25 25 23 22 20 20 19 19 18 17 16 15 16 17 19 20 21 22 23 23 23 24 24 25 26 28 29 31 32 34 36 38 39 40 42 44 45 47 48 48 47 47 48 50 53 56 57 56 56 56 57 57 58 60
16 16 16 18 19 20 21 21 22 22 23 24 24 24 24 25 24 24 23 22 20 20 21 21 22 22 22 22 23 22 22 22 22 22 21 20 20 19 18 16 15 15 15 17 18 19 19 19 19 20 20 20 20 21 23 25 27 30 32 33 32 33 34 36 37 39 43 46 47 48 49 49 50 50 52 54 55 56 57 57 56 56 58 60 61
17 18 18 18 19 19 20 21 21 22 24 25 25 24 24 24 23 21 21 21 21 20 19 19 19 19 19 19 20 21 21 20 20 20 19 18 17 15 13 13 13 14 15 16 17 17 17 17 17 18 18 17 19 21 23 25 27 28 29 30 30 30 32 36 41 44 46 49 50 51 51 51 51 52 53 53 54 55 56 57 57 57 58 61 63
15 17 18 19 19 19 19 20 21 23 24 25 24 23 23 23 22 19 17 16 17 18 17 17 17 18 19 19 18 19 19 18 17 15 13 12 11 10 10 11 12 13 14 15 15 15 16 15 15 16 17 17 19 21 22 24 25 25 26 29 32 33 35 39 44 46 48 50 52 53 52 50 50 51 51 52 52 53 55 57 59 59 59 61 63
15 16 16 18 18 19 19 20 21 23 24 24 23 22 22 22 22 21 19 18 18 18 17 16 15 15 15 15 13 12 11 10 9 8 8 8 8 9 9 9 11 12 12 13 13 13 13 14 15 16 17 17 18 20 21 22 24 25 28 32 35 37 38 39 41 44 46 49 52 53 50 47 47 48 49 49 49 49 51 53 56 59 59 59 61
15 15 16 18 19 19 19 19 20 22 24 23 22 22 22 22 22 23 22 21 20 19 16 14 12 10 9 8 8 7 7 6 6 6 6 6 6 7 7 7 8 9 9 10 10 11 13 14 15 16 16 16 17 18 20 21 24 27 31 34 35 35 35 35 37 41 44 49 53 52 47 43 41 42 43 45 46 46 46 47 50 55 58 60 61
12 13 16 18 19 20 20 19 20 21 21 20 20 20 20 20 20 19 18 18 18 18 16 14 14 12 10 9 8 6 6 5 5 4 4 5 5 5 6 6 6 7 7 8 10 12 14 15 15 14 14 14 15 17 18 21 25 28 31 31 30 30 31 33 36 40 44 48 53 53 46 39 35 33 34 38 41 43 43 43 45 49 54 55 56
9 10 13 18 20 21 21 20 20 20 20 19 19 18 18 18 17 17 17 17 16 17 16 15 14 13 12 10 8 7 5 4 3 2 3 4 4 5 5 5 6 7 8 10 11 12 13 14 13 12 12 13 14 15 18 21 25 27 26 26 26 28 31 34 37 40 44 47 50 52 48 40 32 28 28 32 36 39 40 40 41 45 49 50 50
10 10 13 18 21 23 24 24 23 23 22 22 21 21 20 20 19 18 18 17 17 16 15 14 12 11 11 9 7 6 4 2 1 2 3 4 5 5 6 7 9 10 11 12 12 12 13 13 11 10 10 11 12 15 18 21 23 23 22 22 25 28 31 35 38 41 43 45 47 49 49 43 35 28 27 29 32 33 34 34 35 39 44 47 47
17 18 20 22 25 27 29 29 29 27 27 27 26 25 24 22 21 20 19 18 17 16 15 15 14 12 10 8 6 5 4 3 3 4 5 6 7 8 9 10 11 12 13 14 14 13 12 11 10 9 10 10 11 13 16 19 19 19 19 22 25 27 30 34 37 38 39 41 43 45 47 47 41 32 27 28 30 30 29 29 31 33 37 42 44
21 22 25 28 30 31 31 32 32 31 31 31 29 27 26 24 23 22 21 19 19 18 18 17 15 12 10 7 5 5 4 4 4 5 6 7 9 10 11 12 13 14 15 15 14 13 12 11 10 9 9 9 10 12 14 16 18 18 18 21 24 26 27 29 31 33 34 35 37 40 43 46 44 38 29 25 27 28 28 29 30 29 30 35 39
21 22 25 27 30 31 31 32 32 32 32 31 28 27 25 24 24 23 22 22 22 23 21 19 16 13 11 9 7 6 5 5 5 6 7 9 10 12 13 14 15 15 15 15 14 13 12 11 9 9 8 7 8 10 12 15 17 18 18 20 23 24 26 27 26 27 28 30 32 35 37 38 38 36 29 20 15 14 16 21 23 21 21 24 24
20 22 24 26 27 28 29 29 29 29 29 27 26 25 24 24 23 23 23 23 23 22 20 18 15 13 11 10 8 7 6 6 7 7 9 10 12 13 15 15 15 14 13 13 14 14 12 10 8 7 6 5 6 8 10 13 16 18 18 20 22 23 25 27 27 25 24 24 27 30 33 34 35 35 32 26 21 18 14 8 6 9 13 20 25
21 22 24 24 25 26 27 27 27 26 25 24 24 22 22 21 21 21 22 21 20 19 17 15 14 12 11 9 8 8 8 8 9 9 10 11 12 13 13 12 12 12 12 13 14 13 11 8 7 6 5 5 5 7 10 12 14 16 18 19 20 21 23 26 27 27 24 22 22 24 26 29 33 36 38 37 35 34 34 34 34 37 39 39 40
23 23 23 23 23 23 24 23 23 23 22 21 20 19 18 18 18 18 18 18 17 16 14 13 12 11 9 8 8 8 8 9 9 9 9 9 9 9 9 9 10 11 12 11 11 9 7 5 5 4 4 5 5 6 9 11 12 13 15 18 19 20 21 23 25 26 26 24 24 23 22 23 26 29 33 37 38 39 40 42 42 42 42 42 41
26 25 23 22 21 21 20 19 18 18 18 17 16 16 15 14 14 14 13 13 13 12 12 11 10 9 8 8 9 9 9 9 9 8 8 7 7 7 7 7 9 10 9 7 6 6 6 6 5 5 5 5 5 6 8 9 10 10 13 15 17 18 19 20 21 22 23 25 27 26 24 24 24 25 26 28 31 34 36 37 38 38 38 38 37
27 26 23 22 20 18 16 14 13 13 13 13 12 12 12 11 11 11 10 9 9 8 8 7 7 7 7 7 7 6 6 5 6 6 6 7 6 6 5 4 4 5 4 3 3 5 6 6 6 6 5 5 6 6 7 7 8 8 10 13 15 16 17 18 17 17 18 21 24 25 26 26 26 26 26 26 26 27 29 30 31 32 32 33 33
27 25 22 20 18 16 14 12 11 10 10 10 10 11 11 10 10 9 8 8 7 6 5 4 4 3 3 2 2 1 2 2 4 5 6 6 6 5 4 3 1 1 1 2 3 5 5 4 4 4 4 5 5 6 6 6 6 7 9 11 13 14 16 16 15 14 13 15 16 17 19 21 22 23 24 25 24 24 25 26 27 27 27 27 27
23 22 20 17 16 15 14 13 13 12 13 13 13 13 12 11 11 10 9 9 8 7 7 6 5 3 3 2 2 2 3 4 5 5 5 5 5 5 4 4 4 3 3 4 4 5 4 4 4 4 4 4 4 5 5 5 4 5 6 9 10 12 13 14 14 13 12 12 12 12 13 14 14 14 15 16 16 17 17 18 19 20 20 20 20
20 21 20 19 18 18 17 16 16 16 15 15 15 15 14 14 13 13 13 12 11 10 9 8 7 5 4 4 3 3 3 4 5 5 5 5 6 6 5 5 5 5 5 4 4 4 4 3 3 3 3 3 3 3 3 3 3 3 4 6 8 9 10 11 12 13 12 12 12 12 12 12 11 11 10 9 9 8 8 8 8 9 9 9 10
21 22 22 22 22 21 20 19 18 18 17 16 17 17 16 16 15 15 15 14 14 13 12 11 10 8 6 6 4 3 1 2 3 4 5 6 6 5 5 5 6 6 5 4 3 3 3 2 2 2 3 3 3 3 2 2 2 3 4 6 8 9 9 9 9 10 11 12 12 12 12 12 12 11 10 9 8 7 5 3 2 2 3 4 5
24 24 24 24 23 22 21 21 20 20 18 18 17 17 17 16 16 15 15 14 14 14 13 12 11 10 8 7 7 5 4 2 0 2 2 3 5 5 4 4 5 5 5 4 4 3 4 4 4 3 4 3 3 3 3 2 2 3 5 7 9 10 10 9 9 9 9 10 12 13 13 13 13 12 11 10 9 8 7 5 3 2 0 1 3
Wind_Direction
219 221 222 223 224 225 226 226 226 225 225 225 225 226 225 225 226 226 225 227 229 231 232 230 229 228 228 227 226 227 229 229 228 227 227 229 231 234 236 238 239 241 241 242 241 240 241 241 241 240 239 239 239 240 241 241 240 238 238 239 240 243 247 248 250 254 255 254 254 253 249 247 248 250 252 253 254 255 257 259 263 267 268 265 262
220 221 223 224 225 226 227 227 227 227 227 227 227 227 227 227 228 228 228 228 229 231 232 232 232 231 231 231 230 230 231 231 230 229 228 229 230 233 235 237 239 240 241 242 243 243 244 244 244 243 241 242 242 242 242 242 242 242 243 244 245 246 248 251 253 256 258 257 256 257 253 250 251 253 254 256 257 258 258 260 262 264 265 263 261
221 222 223 225 226 226 226 227 227 228 228 229 229 229 229 229 229 230 230 230 231 231 233 233 234 234 234 235 234 233 233 232 233 233 233 233 232 233 235 238 241 242 242 242 243 245 246 247 246 245 244 245 244 245 245 243 243 245 246 248 250 251 250 252 254 257 261 262 259 258 256 255 255 256 257 259 261 260 260 261 262 262 263 261 261
221 222 223 225 226 226 226 227 227 228 229 230 231 231 230 230 230 231 232 233 233 233 234 235 235 236 236 236 236 236 236 235 236 236 237 238 237 237 237 239 242 245 246 246 245 245 247 248 248 247 247 248 247 247 247 246 245 246 248 250 252 254 254 253 254 257 260 263 262 260 258 258 259 259 258 258 259 258 259 260 260 261 262 262 263
220 221 223 225 225 226 227 228 228 229 230 231 232 232 232 232 232 232 233 234 234 235 235 235 236 237 237 238 239 239 239 239 239 240 241 242 242 242 242 241 242 245 248 250 249 248 248 249 250 250 250 251 252 251 249 249 249 249 250 252 254 255 256 256 257 258 259 262 264 263 260 259 259 260 259 258 258 257 256 257 258 259 261 262 263
219 221 223 224 225 226 227 228 230 231 231 232 232 233 233 233 233 233 233 234 235 236 236 236 237 237 239 240 241 242 243 243 243 243 244 245 246 246 246 246 245 245 247 249 250 250 250 251 252 251 251 252 253 254 254 253 253 252 253 254 256 257 257 258 258 259 260 263 266 266 264 261 259 259 259 259 259 259 257 257 258 259 260 261 263
219 221 223 224 226 227 228 229 231 232 233 234 234 233 233 234 234 234 234 234 235 236 237 238 238 239 240 242 243 245 246 245 246 246 246 247 248 249 250 250 249 248 248 248 249 249 250 252 253 253 253 254 255 255 255 256 256 256 257 257 258 258 258 259 260 259 260 262 264 266 266 264 261 259 258 258 258 259 258 258 258 259 260 261 264
219 222 224 225 227 229 230 231 232 233 234 235 235 235 234 235 235 236 236 235 235 236 237 239 240 241 242 242 244 246 246 247 247 248 248 248 249 250 252 253 253 252 253 252 251 251 251 252 253 254 255 257 258 258 257 257 258 258 260 260 260 260 260 260 260 260 261 262 263 264 265 265 263 260 257 254 252 254 255 256 258 260 261 262 265
220 222 223 226 229 231 232 232 233 233 234 234 235 235 235 235 235 236 236 236 237 237 238 239 241 242 243 243 244 245 245 246 247 248 249 249 250 251 253 254 255 256 256 257 256 255 254 254 255 256 257 259 261 261 261 260 260 260 261 262 261 262 262 262 261 261 261 261 262 263 263 264 263 260 257 253 251 254 255 255 257 261 262 263 263
220 222 223 227 231 232 233 233 234 234 234 234 235 235 235 235 235 236 237 238 238 238 238 239 240 242 243 244 245 246 245 246 248 249 250 251 251 252 253 255 256 257 258 259 260 260 259 259 260 260 261 261 262 263 263 262 262 263 264 263 262 263 263 264 263 263 262 262 263 263 263 264 265 264 262 259 257 257 256 255 257 260 261 260 261
221 223 225 228 231 232 233 234 235 235 235 235 235 236 236 235 235 236 237 238 239 239 239 239 240 241 243 244 246 247 248 249 250 251 252 253 252 252 254 256 257 258 259 260 261 263 263 263 264 264 264 264 264 265 265 265 265 266 266 265 263 263 263 263 264 264 264 264 264 264 263 265 268 269 268 267 264 260 259 258 258 259 258 258 260
222 225 228 230 231 232 234 235 236 236 236 236 236 237 236 236 235 235 236 237 238 239 239 240 241 241 242 244 246 247 250 252 253 254 255 255 254 253 255 257 258 259 261 261 262 264 265 265 266 266 266 267 268 269 269 269 269 269 269 268 266 265 264 264 264 264 265 265 266 265 264 266 269 270 270 271 269 266 264 261 259 259 259 258 260
224 226 229 230 232 234 235 237 237 237 238 237 237 237 237 236 236 235 236 236 237 238 240 241 242 242 242 243 246 248 251 253 254 255 256 256 256 255 255 257 259 261 262 263 264 265 266 267 267 267 268 269 269 270 270 272 272 272 272 271 268 266 265 264 264 264 264 266 267 267 267 268 269 270 271 272 272 270 267 264 262 260 259 259 261
225 227 229 231 233 235 236 237 238 239 239 239 239 238 238 238 237 236 236 236 236 238 240 241 242 242 242 244 246 249 252 254 255 256 256 258 257 256 256 257 259 261 263 264 265 266 267 268 268 269 271 271 270 271 272 273 274 274 275 273 271 270 268 267 266 264 263 263 264 266 268 268 269 272 273 272 272 271 270 270 269 266 264 266 268
226 228 230 231 233 235 236 237 238 239 240 239 239 240 240 239 238 237 236 236 236 238 240 242 243 243 244 245 246 249 252 254 255 257 258 259 258 257 256 257 259 261 262 264 265 266 268 268 270 271 272 272 272 272 273 274 275 276 276 275 275 275 273 272 270 268 267 265 265 268 270 270 271 275 275 272 272 272 273 274 274 272 271 271 269
227 229 231 232 233 235 236 237 238 239 240 240 239 240 240 241 241 239 238 237 238 239 241 242 243 244 245 246 247 249 253 255 255 257 259 259 259 257 257 258 259 260 262 263 264 266 268 268 270 272 273 274 274 274 275 275 275 275 275 276 276 276 276 276 274 272 272 271 270 272 274 274 274 275 275 273 272 272 273 273 271 267 264 263 263
228 230 232 233 234 235 236 237 238 239 240 240 240 240 241 241 242 241 240 240 240 240 241 242 243 244 246 246 247 250 253 255 255 257 259 259 258 258 258 258 259 260 262 263 264 265 267 268 270 272 274 276 276 276 276 275 274 274 274 275 275 276 278 277 274 272 273 272 272 273 275 275 274 274 273 271 271 271 269 266 265 262 259 258 258
231 232 233 234 236 237 238 239 240 240 240 241 242 242 242 242 242 242 242 242 243 243 244 244 245 245 246 247 248 250 252 254 254 255 257 257 257 257 258 259 259 261 262 263 264 266 267 268 269 270 272 275 276 277 276 275 275 275 275 275 274 275 277 277 273 274 275 274 274 273 273 273 272 272 272 270 269 268 265 263 263 261 258 257 258
234 234 235 236 237 238 240 240 241 242 242 242 243 244 244 244 244 244 244 244 245 246 246 246 246 247 247 248 249 250 251 253 253 254 255 256 257 257 257 257 258 260 262 264 265 267 268 269 270 271 273 276 277 277 276 275 274 274 275 274 272 273 277 277 276 277 278 277 277 276 276 276 275 273 273 272 270 267 264 264 261 256 253 255 256
237 238 238 239 239 239 241 241 241 242 243 244 245 245 245 245 244 244 244 245 245 246 246 247 248 249 250 250 250 251 251 252 253 254 256 256 257 256 256 256 258 259 262 263 265 265 266 267 269 271 273 276 277 278 278 276 275 276 275 272 270 274 279 278 277 278 277 277 278 278 279 279 278 276 274 273 271 268 266 264 259 253 251 252 253
238 240 241 241 241 241 241 242 242 242 243 245 245 245 245 245 244 245 245 245 245 245 246 247 248 250 251 251 252 252 252 253 254 256 257 257 257 257 256 257 259 261 264 265 266 266 267 269 272 274 275 277 278 279 280 280 280 279 278 276 276 280 282 280 279 278 275 274 275 275 276 277 276 275 274 274 272 271 269 265 257 252 250 250 250
236 238 241 242 243 243 243 242 243 242 242 242 242 242 243 244 244 245 245 245 245 245 247 247 248 250 251 251 252 253 253 254 255 257 258 258 258 257 258 260 262 264 266 267 268 270 272 274 277 278 278 278 278 278 278 279 280 280 280 282 284 285 286 284 282 280 276 273 270 270 272 274 274 273 273 274 274 272 268 264 258 253 252 252 251
236 236 238 241 244 245 245 244 243 242 241 239 239 240 241 242 243 243 243 243 244 245 246 247 248 249 251 252 252 253 253 254 255 257 257 257 257 258 260 262 264 264 265 267 269 271 273 274 276 276 276 276 276 277 277 277 278 279 281 283 285 286 286 284 282 281 278 274 269 269 274 276 275 273 273 275 276 273 267 263 261 259 256 254 253
238 236 236 237 240 244 246 247 245 243 241 239 237 238 239 240 241 242 242 242 243 243 245 246 247 249 250 251 252 251 252 253 253 255 255 256 257 257 256 256 256 256 258 262 265 267 269 270 272 273 275 277 278 280 280 280 280 280 281 283 284 285 285 284 284 283 282 278 274 272 276 279 276 274 276 279 280 276 269 265 263 261 259 258 256
240 238 236 234 236 239 244 247 246 243 241 238 236 235 237 238 239 239 240 240 241 242 243 245 247 248 249 251 252 251 251 251 251 252 253 254 253 251 249 248 249 252 255 258 262 266 269 271 273 275 276 278 280 281 281 282 282 282 283 284 285 286 286 286 287 288 288 288 286 281 283 285 282 280 280 281 279 275 270 266 263 260 259 258 255
239 237 233 230 231 234 238 243 244 242 240 238 236 236 236 236 237 237 238 239 239 241 243 245 247 248 249 250 251 250 250 249 249 249 249 248 246 245 246 246 247 249 252 255 260 265 268 271 274 275 276 277 278 280 281 282 284 284 286 287 287 287 288 288 289 291 293 294 294 291 290 290 287 285 284 281 277 275 271 267 261 257 256 254 249
233 230 226 223 224 227 231 235 238 238 236 236 235 234 234 235 237 236 236 237 238 240 242 244 245 246 246 246 246 246 247 246 244 243 243 242 241 241 242 242 244 247 251 253 257 261 264 268 271 274 277 279 281 282 283 284 285 286 286 287 288 288 290 290 292 295 296 296 296 294 292 290 287 285 282 278 276 275 272 266 259 256 256 254 247
231 224 220 219 220 222 225 229 232 231 229 227 227 228 229 232 235 237 238 239 240 241 242 243 243 243 242 240 238 238 240 241 240 240 241 243 244 245 246 249 252 254 255 256 257 259 263 269 274 279 282 283 283 283 283 283 285 286 286 288 289 290 292 294 297 299 301 302 302 299 296 292 288 285 282 277 274 273 269 264 258 256 255 251 243
236 229 223 220 219 219 221 224 226 225 222 220 220 220 222 227 232 236 240 241 242 243 243 242 241 239 237 236 235 234 234 235 235 238 241 244 248 250 253 255 255 255 256 258 263 269 273 277 279 280 280 281 282 283 285 286 288 290 292 295 296 298 301 303 306 307 308 309 307 304 300 293 286 283 280 275 274 273 268 262 258 255 252 247 241
234 229 224 219 217 217 218 220 221 220 219 218 218 218 221 225 228 231 233 236 239 241 241 239 237 235 233 233 233 232 231 230 231 235 240 243 246 249 251 252 254 257 264 270 276 280 280 279 280 280 281 284 287 290 293 297 300 303 305 308 310 311 314 317 318 318 317 314 310 306 302 294 285 280 275 271 271 271 268 262 258 253 249 244 241
230 224 219 215 212 214 217 218 218 217 217 218 219 218 220 222 223 224 226 228 229 232 234 234 233 230 227 227 226 226 226 226 227 231 235 238 240 242 245 251 259 267 275 278 278 277 276 278 281 284 287 293 298 302 306 311 315 317 318 320 323 325 326 329 331 332 331 328 321 312 304 295 287 281 276 271 268 267 264 262 257 251 247 244 241
233 225 220 215 213 213 215 216 216 216 215 215 215 215 217 218 216 215 217 220 221 222 224 228 227 223 220 223 227 226 223 221 221 222 225 229 234 239 247 257 267 273 275 276 277 278 281 284 287 291 297 304 308 311 315 319 324 327 329 332 335 336 335 335 336 336 337 336 330 320 308 297 288 283 279 274 270 266 262 258 254 250 246 243 240
237 228 222 218 215 214 214 214 213 211 210 209 209 210 215 218 214 206 201 204 207 207 207 211 214 212 209 211 216 217 214 215 215 216 221 229 236 245 254 261 267 270 273 276 279 282 286 290 295 300 306 309 309 312 319 325 329 333 336 336 336 336 335 334 332 332 334 336 333 326 314 301 291 285 281 277 273 268 264 258 252 247 245 241 237
224 222 220 217 214 211 211 212 209 204 203 205 206 209 212 215 214 209 198 188 184 184 185 188 191 196 198 197 196 196 199 206 213 219 227 236 243 251 259 264 269 273 276 278 281 285 290 297 302 304 306 308 312 318 326 331 333 334 335 334 334 333 333 334 334 337 340 341 338 331 320 308 297 289 284 281 276 271 268 264 255 247 242 239 236
208 211 213 212 209 206 206 209 207 202 200 201 204 206 205 204 204 202 196 187 181 176 171 164 159 160 167 173 174 175 180 190 204 218 232 243 251 258 264 267 270 273 277 282 289 296 302 304 306 306 308 312 318 325 332 335 336 336 337 337 338 338 338 340 344 348 352 353 348 340 327 314 304 296 288 284 279 274 271 269 261 250 243 238 234
207 205 202 199 198 197 196 196 196 194 191 190 192 194 193 193 193 189 182 178 173 167 159 152 148 148 149 154 160 163 167 179 193 208 227 242 249 251 254 260 270 280 291 299 303 306 308 308 307 307 308 313 321 330 337 338 338 339 342 344 344 344 348 353 356 357 358 359 357 351 339 323 310 303 297 290 283 278 274 274 268 258 248 242 237
208 202 192 183 180 179 178 175 174 172 169 168 171 172 168 166 166 164 161 160 159 156 154 152 153 152 147 143 146 149 152 161 176 201 240 256 255 251 254 273 292 300 305 309 311 310 308 306 303 303 307 314 325 335 340 340 341 344 349 351 352 354 358 2 4 3 2 1 1 359 351 337 319 308 303 297 290 284 280 278 275 266 258 252 247
173 175 176 170 163 157 153 149 147 148 147 147 149 149 145 143 145 147 148 147 145 143 140 138 139 141 140 138 143 153 161 174 202 251 274 279 276 274 279 290 299 303 307 310 311 309 305 300 296 296 304 315 329 338 341 343 346 351 356 359 360 1 4 6 7 8 7 6 6 6 1 352 337 319 305 299 295 290 286 284 281 275 266 256 250
154 153 155 155 150 145 143 142 142 143 143 141 141 142 142 142 143 145 143 138 134 130 130 132 134 137 143 152 161 170 180 201 232 249 262 272 278 283 288 293 298 302 306 307 306 302 298 294 289 289 300 314 329 339 342 345 349 354 356 356 358 0 4 7 10 12 13 14 13 13 10 5 357 341 320 303 295 292 292 290 287 281 272 262 256
157 152 150 150 148 144 143 143 143 144 145 145 146 147 147 148 151 153 150 145 141 140 142 144 143 142 148 160 172 189 205 221 234 244 260 275 284 287 290 293 298 302 304 303 301 298 295 290 285 286 297 311 327 337 343 348 352 351 348 347 351 356 359 2 6 11 16 20 22 21 18 14 8 359 342 315 296 292 292 290 288 288 280 266 253
155 149 148 149 149 149 147 144 143 144 145 147 148 149 148 148 151 154 151 147 145 148 151 153 152 153 156 160 168 188 210 225 239 257 274 284 286 288 289 292 296 301 302 301 300 299 297 290 282 283 292 308 325 336 344 352 355 354 350 350 353 357 359 1 4 7 12 22 33 37 34 29 23 16 7 350 327 313 299 289 288 288 271 247 222
151 145 143 142 145 148 148 144 143 145 146 147 147 146 145 146 148 150 150 150 151 155 160 162 163 166 172 178 186 201 221 240 254 266 277 282 284 285 288 293 298 302 304 304 304 304 300 289 274 275 289 307 324 334 342 354 360 359 357 357 359 0 1 5 10 10 11 21 38 48 51 52 50 46 42 42 48 57 63 63 73 104 140 158 150
155 148 145 144 144 144 143 142 144 146 147 146 145 144 144 146 149 151 154 156 158 162 165 165 167 174 185 200 217 232 246 256 261 267 274 279 284 289 292 298 305 308 309 310 309 305 300 289 278 281 299 316 327 333 339 349 357 358 359 3 6 5 5 9 15 18 17 19 28 40 51 59 63 64 65 67 69 73 78 83 90 95 100 105 109
162 155 151 150 148 145 143 144 146 147 146 146 147 147 149 152 153 154 156 160 162 165 169 170 174 181 192 208 223 235 247 259 271 282 286 289 298 307 308 308 311 313 316 318 316 312 311 312 312 316 325 334 341 342 342 346 350 352 358 6 10 11 11 12 16 21 25 26 27 31 39 49 56 64 71 75 78 81 84 87 90 92 93 94 96
162 160 158 156 152 148 146 146 146 146 146 148 152 154 155 158 160 161 164 168 171 175 180 184 189 198 208 219 231 241 254 267 279 287 290 294 310 326 329 326 326 329 332 336 335 334 339 347 353 352 346 350 1 358 351 351 352 353 1 11 17 17 17 16 16 22 32 38 40 40 42 44 48 53 60 68 75 81 86 91 95 96 97 99 100
159 160 159 157 154 151 148 146 146 150 154 158 163 165 166 169 172 172 173 176 180 185 193 201 211 220 227 235 244 252 265 279 288 290 289 290 302 318 331 343 351 353 357 360 343 331 332 342 352 354 350 355 3 1 356 0 7 9 15 22 25 25 23 21 20 24 32 37 41 46 49 50 51 54 56 60 67 73 79 86 92 95 98 100 101
153 154 153 152 151 149 147 145 147 151 153 154 158 160 160 162 164 164 163 166 170 175 181 188 199 214 222 233 252 254 251 261 267 265 267 275 290 306 317 319 325 338 324 304 300 306 315 331 345 348 345 344 350 357 5 14 21 24 29 32 31 28 26 23 21 21 20 20 24 34 41 45 50 56 59 60 65 72 78 82 84 87 92 96 99
133 133 133 135 137 137 136 137 138 138 136 134 134 134 134 135 136 135 133 134 135 134 134 131 126 123 121 121 138 178 200 211 216 219 233 257 280 296 304 296 291 298 308 311 311 313 320 333 340 336 330 332 342 355 6 11 15 27 38 40 34 27 23 19 15 14 12 10 9 9 10 15 27 42 50 52 56 64 73 80 84 87 90 93 98
111 113 116 119 121 120 120 121 122 120 120 119 118 117 116 115 113 110 108 106 104 104 105 105 104 103 103 104 120 159 187 198 201 207 227 252 268 283 296 292 285 291 304 319 326 321 315 324 338 330 316 320 334 341 346 350 352 5 27 35 30 23 19 14 10 8 7 5 3 360 355 352 356 5 14 22 31 43 57 69 80 90 100 111 123
105 107 108 109 107 106 105 104 102 102 102 104 105 104 103 101 98 94 91 90 88 87 87 86 85 85 83 80 82 100 151 210 216 216 219 225 233 250 274 279 272 274 281 296 313 312 292 283 295 287 275 282 298 299 298 313 328 343 1 8 4 1 4 6 3 3 5 4 1 358 355 352 349 349 352 358 4 9 15 31 62 97 124 146 160
100 103 103 102 100 99 98 95 94 92 92 93 94 94 93 92 90 88 88 88 88 88 88 88 87 84 81 74 66 60 52 45 60 210 210 210 217 230 249 256 254 256 265 272 279 279 270 263 261 258 259 267 270 265 266 278 290 317 345 348 340 337 344 352 352 351 356 0 0 358 355 354 352 350 348 350 351 351 351 351 354 2 57 170 179
Height
1498 1501 1503 1506 1509 1512 1515 1518 1521 1524 1527 1529 1532 1534 1536 1538 1541 1543 1545 1547 1549 1551 1552 1554 1556 1557 1559 1560 1562 1563 1564 1565 1567 1568 1568 1569 1570 1571 1571 1572 1573 1573 1574 1575 1575 1576 1576 1577 1577 1577 1578 1578 1578 1579 1579 1580 1580 1580 1580 1580 1580 1580 1580 1580 1578 1577 1578 1579 1579 1579 1580 1579 1578 1578 1578 1578 1578 1578 1578 1578 1578 1578 1578 1578 1578
1494 1497 1500 1503 1505 1508 1511 1514 1518 1521 1523 1526 1528 1531 1533 1536 1538 1540 1542 1544 1546 1548 1550 1552 1553 1555 1556 1558 1559 1560 1561 1563 1564 1565 1565 1566 1567 1568 1568 1569 1570 1571 1572 1572 1572 1573 1574 1574 1574 1575 1576 1575 1576 1576 1577 1578 1578 1578 1578 1578 1577 1578 1577 1577 1576 1575 1575 1576 1576 1576 1577 1576 1575 1575 1575 1575 1576 1576 1576 1576 1576 1576 1576 1576 1576
1490 1494 1497 1499 1502 1505 1508 1511 1514 1517 1520 1522 1525 1527 1530 1533 1535 1537 1539 1541 1543 1545 1547 1549 1551 1552 1554 1555 1556 1557 1559 1560 1561 1561 1562 1563 1564 1565 1566 1566 1567 1568 1568 1569 1570 1570 1571 1571 1571 1572 1573 1573 1573 1574 1574 1575 1576 1575 1575 1575 1575 1575 1575 1575 1574 1573 1572 1573 1574 1574 1574 1573 1573 1573 1573 1573 1574 1574 1573 1573 1573 1573 1573 1573 1573
1488 1491 1493 1496 1499 1502 1505 1508 1511 1513 1516 1518 1521 1524 1527 1530 1532 1534 1536 1538 1540 1542 1544 1546 1548 1550 1551 1552 1553 1554 1555 1556 1557 1558 1559 1560 1561 1562 1563 1564 1564 1565 1565 1566 1567 1567 1567 1567 1568 1569 1570 1570 1570 1571 1572 1572 1573 1572 1572 1572 1572 1571 1572 1572 1571 1571 1570 1569 1570 1571 1571 1571 1570 1571 1571 1571 1571 1571 1570 1570 1570 1570 1570 1570 1570
1485 1488 1491 1494 1496 1499 1502 1504 1507 1509 1512 1515 1517 1521 1524 1526 1529 1531 1533 1535 1537 1539 1541 1543 1545 1546 1547 1548 1550 1551 1552 1553 1554 1555 1555 1557 1558 1559 1560 1561 1561 1561 1562 1562 1563 1564 1564 1564 1565 1566 1567 1567 1568 1569 1569 1570 1570 1569 1569 1569 1568 1568 1569 1568 1568 1568 1568 1566 1566 1568 1569 1568 1568 1568 1568 1568 1568 1567 1567 1567 1566 1566 1566 1566 1566
1482 1485 1488 1490 1493 1495 1498 1500 1502 1505 1508 1511 1514 1517 1520 1523 1525 1527 1530 1532 1534 1535 1537 1539 1540 1542 1543 1545 1546 1547 1548 1550 1550 1551 1552 1553 1554 1555 1556 1557 1557 1558 1558 1559 1559 1560 1560 1561 1562 1564 1564 1564 1565 1566 1566 1567 1567 1566 1566 1565 1566 1565 1565 1565 1565 1565 1565 1564 1563 1564 1565 1565 1565 1564 1564 1564 1564 1563 1563 1563 1562 1562 1562 1562 1562
1479 1482 1485 1487 1489 1491 1493 1496 1498 1501 1504 1507 1511 1514 1516 1519 1521 1523 1526 1528 1530 1531 1533 1535 1537 1538 1540 1541 1542 1543 1545 1546 1547 1548 1549 1550 1551 1551 1552 1552 1553 1554 1555 1555 1556 1557 1557 1558 1559 1560 1561 1561 1562 1563 1563 1563 1563 1563 1562 1562 1563 1562 1562 1562 1562 1562 1561 1561 1560 1560 1560 1561 1561 1561 1561 1561 1561 1559 1559 1558 1557 1557 1557 1557 1557
1476 1478 1481 1483 1485 1487 1490 1492 1495 1498 1501 1504 1507 1510 1512 1514 1517 1519 1522 1524 1526 1527 1529 1531 1533 1535 1536 1538 1539 1540 1541 1542 1543 1545 1546 1546 1547 1547 1548 1548 1549 1550 1551 1551 1552 1553 1554 1555 1555 1556 1557 1557 1558 1559 1559 1560 1560 1559 1559 1559 1559 1559 1558 1558 1558 1558 1558 1557 1556 1556 1556 1556 1556 1557 1557 1557 1555 1553 1553 1553 1552 1552 1553 1553 1553
1472 1474 1477 1478 1481 1484 1487 1490 1492 1495 1498 1500 1503 1505 1508 1511 1513 1516 1518 1519 1522 1524 1526 1528 1530 1531 1532 1534 1535 1536 1537 1538 1539 1540 1541 1542 1543 1543 1544 1544 1545 1546 1547 1547 1548 1549 1550 1551 1552 1553 1553 1554 1554 1555 1555 1556 1556 1555 1556 1556 1556 1555 1555 1555 1554 1554 1553 1552 1552 1552 1552 1551 1550 1551 1552 1551 1549 1549 1550 1551 1549 1548 1550 1550 1550
1469 1471 1473 1475 1478 1481 1484 1487 1489 1492 1494 1496 1499 1502 1504 1507 1510 1512 1513 1516 1518 1520 1523 1525 1526 1527 1528 1530 1531 1532 1532 1534 1535 1536 1537 1538 1539 1540 1541 1541 1542 1543 1543 1544 1544 1545 1546 1547 1547 1548 1550 1550 1551 1551 1551 1551 1551 1551 1552 1552 1552 1552 1552 1551 1550 1550 1549 1548 1547 1548 1547 1545 1545 1546 1546 1546 1547 1547 1548 1547 1546 1546 1547 1546 1545
1466 1468 1470 1472 1475 1478 1481 1483 1486 1488 1490 1493 1495 1498 1501 1504 1506 1508 1510 1512 1514 1517 1519 1520 1521 1523 1524 1526 1527 1527 1528 1529 1530 1532 1533 1534 1536 1537 1538 1538 1539 1539 1540 1540 1540 1541 1542 1543 1543 1545 1545 1546 1546 1547 1547 1547 1547 1547 1547 1547 1547 1548 1548 1547 1546 1545 1545 1543 1542 1543 1542 1540 1541 1542 1541 1542 1543 1544 1544 1544 1544 1544 1543 1542 1541
1463 1465 1468 1470 1473 1475 1478 1480 1483 1485 1487 1490 1492 1495 1498 1500 1502 1504 1506 1508 1511 1513 1514 1516 1517 1519 1520 1521 1522 1523 1524 1525 1526 1528 1529 1531 1533 1534 1534 1535 1536 1536 1536 1537 1537 1538 1539 1539 1540 1541 1541 1541 1542 1542 1543 1543 1543 1543 1543 1542 1542 1543 1543 1542 1541 1541 1541 1539 1538 1538 1537 1536 1537 1538 1537 1538 1539 1539 1540 1540 1540 1540 1539 1539 1537
1461 1463 1465 1468 1470 1472 1475 1477 1479 1482 1484 1487 1490 1492 1495 1496 1498 1500 1502 1505 1508 1509 1510 1512 1513 1514 1516 1517 1518 1519 1520 1521 1523 1524 1526 1527 1529 1531 1532 1532 1532 1532 1533 1534 1535 1535 1536 1536 1536 1536 1537 1537 1538 1538 1539 1538 1539 1539 1538 1537 1537 1537 1537 1537 1536 1536 1537 1536 1534 1532 1532 1533 1533 1533 1534 1535 1535 1535 1535 1535 1536 1536 1535 1534 1533
1458 1460 1462 1465 1467 1469 1472 1474 1476 1479 1481 1484 1487 1489 1490 1492 1494 1497 1499 1502 1504 1505 1506 1507 1508 1510 1511 1513 1514 1515 1516 1517 1519 1521 1522 1524 1526 1527 1529 1529 1529 1529 1530 1531 1532 1532 1532 1532 1532 1532 1533 1534 1534 1534 1534 1534 1534 1534 1533 1532 1531 1531 1532 1530 1530 1532 1533 1532 1530 1527 1528 1530 1529 1528 1531 1533 1532 1531 1531 1531 1532 1532 1531 1530 1530
1455 1457 1459 1461 1464 1466 1469 1471 1474 1476 1479 1481 1483 1485 1486 1488 1490 1493 1496 1498 1499 1501 1502 1503 1504 1506 1507 1509 1510 1511 1511 1513 1516 1517 1519 1521 1523 1525 1526 1526 1526 1526 1527 1527 1528 1528 1528 1529 1529 1529 1529 1529 1530 1530 1530 1530 1530 1529 1528 1526 1525 1526 1525 1523 1524 1526 1527 1526 1525 1523 1523 1525 1525 1525 1528 1529 1528 1528 1528 1528 1528 1528 1528 1528 1528
1453 1454 1456 1458 1461 1463 1466 1468 1471 1473 1475 1477 1479 1481 1483 1485 1487 1490 1492 1494 1496 1497 1498 1500 1501 1503 1504 1506 1507 1507 1508 1510 1512 1514 1516 1518 1520 1522 1523 1523 1523 1523 1523 1524 1524 1524 1525 1525 1525 1525 1525 1524 1525 1526 1527 1527 1526 1524 1522 1520 1520 1519 1516 1515 1517 1521 1521 1520 1520 1520 1520 1521 1521 1521 1523 1524 1524 1524 1526 1524 1523 1524 1525 1525 1524
1450 1452 1453 1455 1458 1460 1463 1465 1467 1470 1472 1473 1475 1477 1480 1482 1484 1487 1489 1490 1492 1493 1494 1496 1497 1499 1501 1502 1503 1503 1505 1507 1509 1511 1513 1515 1517 1519 1519 1519 1519 1519 1519 1520 1520 1521 1521 1521 1521 1521 1520 1520 1521 1522 1523 1523 1522 1519 1517 1515 1515 1512 1507 1507 1512 1514 1514 1514 1515 1515 1515 1516 1517 1517 1518 1519 1519 1521 1521 1518 1517 1520 1521 1519 1518
1447 1449 1450 1453 1455 1458 1460 1462 1464 1466 1468 1469 1472 1474 1477 1479 1481 1483 1485 1486 1487 1489 1491 1492 1494 1496 1497 1498 1499 1500 1502 1504 1506 1508 1510 1512 1514 1515 1515 1515 1515 1515 1515 1516 1516 1517 1517 1517 1518 1518 1516 1516 1518 1519 1519 1519 1517 1515 1514 1512 1511 1505 1500 1503 1508 1508 1508 1508 1508 1509 1510 1511 1512 1512 1512 1513 1514 1516 1515 1512 1513 1516 1515 1514 1514
1445 1446 1448 1451 1453 1455 1457 1458 1460 1462 1464 1466 1469 1471 1473 1476 1478 1479 1481 1482 1483 1485 1487 1489 1490 1491 1493 1494 1496 1497 1499 1501 1503 1505 1507 1509 1510 1511 1512 1512 1511 1510 1511 1512 1512 1513 1513 1513 1514 1514 1513 1513 1514 1514 1515 1515 1513 1511 1510 1509 1505 1498 1497 1502 1505 1503 1502 1502 1501 1502 1502 1503 1505 1507 1507 1508 1508 1508 1507 1506 1507 1508 1507 1507 1510
1443 1445 1447 1448 1450 1452 1453 1455 1457 1459 1461 1463 1466 1468 1470 1472 1474 1476 1477 1478 1480 1482 1484 1485 1486 1487 1489 1491 1492 1494 1495 1498 1500 1501 1503 1505 1506 1507 1508 1507 1506 1507 1508 1508 1508 1508 1509 1510 1510 1510 1510 1510 1510 1510 1510 1510 1508 1507 1506 1503 1499 1494 1496 1500 1500 1498 1497 1496 1495 1496 1496 1497 1499 1501 1502 1502 1502 1501 1499 1497 1496 1498 1501 1503 1505
1442 1443 1444 1446 1447 1449 1450 1452 1453 1455 1458 1461 1463 1464 1466 1469 1471 1472 1474 1475 1477 1478 1480 1481 1482 1484 1485 1487 1488 1490 1492 1494 1496 1498 1499 1500 1501 1503 1503 1502 1502 1504 1504 1504 1504 1504 1505 1506 1506 1506 1507 1506 1506 1506 1506 1505 1504 1502 1500 1497 1494 1493 1494 1495 1494 1493 1492 1490 1490 1492 1493 1494 1495 1496 1496 1496 1493 1490 1488 1485 1487 1493 1498 1500 1502
1439 1440 1442 1443 1444 1445 1447 1449 1450 1452 1455 1457 1459 1461 1463 1465 1467 1469 1471 1472 1473 1475 1476 1478 1479 1480 1482 1484 1485 1487 1489 1492 1493 1494 1495 1496 1498 1499 1499 1499 1500 1501 1500 1499 1500 1501 1501 1502 1502 1503 1503 1502 1502 1503 1502 1502 1500 1498 1495 1493 1492 1491 1490 1489 1487 1486 1484 1483 1485 1489 1492 1492 1492 1490 1489 1485 1480 1477 1477 1478 1481 1486 1488 1488 1490
1436 1438 1439 1440 1442 1443 1444 1446 1448 1449 1451 1454 1456 1458 1460 1462 1464 1465 1467 1469 1470 1472 1473 1475 1476 1477 1479 1481 1482 1484 1487 1488 1489 1490 1491 1492 1494 1495 1495 1496 1498 1498 1497 1496 1497 1498 1498 1499 1499 1499 1499 1499 1499 1499 1498 1498 1497 1495 1492 1490 1489 1487 1486 1484 1482 1479 1477 1477 1480 1485 1488 1488 1485 1481 1478 1475 1470 1469 1471 1472 1472 1473 1474 1475 1476
1434 1435 1437 1438 1439 1441 1442 1443 1445 1446 1448 1451 1453 1455 1457 1459 1460 1462 1463 1465 1467 1468 1470 1472 1473 1474 1476 1478 1480 1482 1484 1485 1486 1486 1487 1489 1491 1491 1492 1494 1495 1494 1494 1494 1494 1495 1495 1495 1495 1495 1495 1495 1495 1495 1494 1494 1493 1491 1490 1488 1486 1484 1482 1479 1476 1474 1472 1471 1473 1477 1481 1480 1476 1472 1470 1468 1466 1465 1465 1464 1464 1465 1465 1465 1466
1431 1432 1434 1435 1437 1438 1440 1441 1443 1444 1446 1448 1450 1452 1454 1456 1457 1458 1460 1462 1464 1465 1467 1469 1470 1472 1473 1475 1477 1479 1481 1481 1482 1482 1484 1486 1487 1488 1490 1491 1491 1491 1491 1492 1492 1492 1492 1492 1492 1492 1492 1492 1491 1491 1490 1489 1488 1487 1486 1484 1482 1480 1478 1475 1472 1469 1467 1465 1465 1467 1469 1469 1467 1465 1464 1463 1461 1459 1457 1457 1457 1458 1457 1457 1458
1428 1430 1431 1433 1434 1436 1438 1439 1440 1442 1444 1445 1447 1449 1451 1452 1454 1456 1458 1459 1461 1463 1464 1466 1468 1469 1471 1473 1475 1476 1476 1477 1478 1479 1481 1483 1484 1485 1486 1487 1488 1488 1489 1490 1490 1490 1490 1490 1489 1489 1488 1488 1487 1487 1486 1485 1484 1483 1481 1480 1478 1476 1474 1471 1467 1465 1463 1462 1460 1459 1459 1459 1459 1458 1458 1455 1452 1449 1449 1449 1449 1448 1448 1449 1450
1427 1428 1429 1431 1432 1434 1436 1437 1439 1440 1442 1444 1445 1447 1449 1450 1452 1453 1455 1457 1458 1460 1462 1463 1465 1467 1468 1470 1472 1472 1473 1474 1475 1477 1478 1480 1481 1482 1483 1484 1485 1486 1487 1487 1488 1488 1487 1487 1486 1486 1485 1485 1484 1483 1482 1481 1480 1479 1477 1476 1473 1471 1469 1467 1463 1460 1458 1457 1455 1452 1450 1449 1449 1449 1449 1446 1441 1439 1440 1441 1439 1438 1439 1441 1441
1426 1427 1428 1429 1431 1432 1434 1435 1437 1438 1440 1442 1443 1444 1446 1448 1450 1451 1453 1455 1456 1458 1459 1461 1462 1464 1466 1468 1469 1469 1470 1472 1473 1474 1476 1477 1478 1480 1481 1482 1483 1483 1484 1484 1484 1485 1485 1484 1484 1483 1482 1481 1481 1480 1479 1477 1476 1474 1473 1471 1469 1467 1465 1463 1459 1456 1454 1451 1448 1445 1442 1439 1437 1436 1437 1435 1431 1429 1431 1431 1430 1429 1431 1432 1431
1425 1426 1427 1428 1429 1431 1432 1434 1435 1436 1437 1439 1440 1443 1445 1446 1448 1450 1452 1453 1454 1456 1457 1458 1460 1462 1463 1465 1466 1467 1468 1469 1471 1472 1474 1475 1476 1478 1479 1479 1480 1481 1481 1481 1481 1482 1482 1481 1481 1480 1479 1478 1477 1476 1475 1473 1472 1470 1469 1467 1465 1463 1461 1458 1455 1452 1449 1445 1441 1438 1435 1431 1427 1426 1425 1423 1420 1420 1422 1422 1421 1421 1423 1423 1421
1424 1425 1425 1427 1428 1429 1430 1432 1433 1434 1435 1437 1439 1441 1443 1445 1447 1448 1450 1451 1453 1454 1455 1456 1458 1459 1461 1462 1463 1465 1466 1468 1469 1471 1472 1473 1475 1475 1476 1477 1477 1478 1478 1478 1479 1479 1478 1478 1477 1476 1475 1474 1473 1472 1470 1469 1467 1465 1464 1462 1460 1457 1455 1453 1450 1446 1442 1439 1435 1431 1427 1424 1420 1417 1416 1412 1409 1410 1411 1412 1412 1413 1413 1413 1411
1424 1424 1425 1426 1426 1427 1429 1430 1431 1433 1434 1436 1438 1440 1442 1443 1445 1446 1448 1449 1450 1452 1453 1454 1455 1457 1458 1460 1462 1463 1465 1466 1468 1469 1470 1471 1472 1473 1474 1474 1474 1475 1475 1476 1476 1476 1475 1474 1474 1472 1472 1471 1469 1468 1466 1464 1462 1460 1459 1457 1456 1454 1451 1448 1445 1440 1435 1431 1427 1422 1418 1414 1410 1407 1404 1401 1399 1399 1399 1400 1401 1401 1401 1400 1400
1423 1423 1424 1425 1425 1426 1428 1429 1430 1432 1433 1435 1437 1438 1440 1442 1443 1445 1446 1447 1448 1450 1451 1453 1454 1455 1457 1459 1460 1461 1463 1464 1466 1467 1468 1469 1470 1471 1471 1472 1472 1473 1473 1473 1473 1472 1472 1471 1471 1469 1468 1467 1466 1464 1463 1461 1459 1458 1455 1453 1452 1450 1446 1442 1438 1434 1429 1424 1419 1413 1408 1403 1399 1395 1392 1391 1390 1389 1388 1388 1388 1388 1389 1389 1388
1422 1422 1423 1424 1425 1426 1427 1428 1429 1430 1432 1434 1436 1437 1439 1441 1442 1443 1445 1446 1448 1449 1450 1452 1454 1455 1456 1457 1459 1460 1462 1463 1464 1465 1466 1467 1468 1469 1470 1470 1471 1471 1470 1470 1470 1470 1469 1468 1468 1466 1465 1464 1463 1462 1461 1459 1457 1455 1453 1450 1448 1445 1443 1439 1435 1430 1425 1419 1413 1405 1399 1393 1389 1385 1383 1381 1381 1380 1379 1378 1377 1377 1378 1378 1378
1421 1422 1423 1424 1424 1425 1426 1427 1428 1429 1431 1433 1435 1436 1438 1440 1441 1442 1443 1445 1447 1449 1450 1452 1453 1454 1455 1456 1457 1459 1460 1462 1463 1464 1464 1465 1466 1467 1468 1468 1468 1468 1468 1468 1468 1467 1466 1466 1465 1464 1463 1462 1461 1459 1458 1456 1454 1452 1450 1448 1445 1442 1439 1435 1431 1426 1420 1414 1406 1399 1391 1385 1381 1378 1375 1373 1373 1372 1372 1371 1370 1369 1368 1368 1369
1421 1421 1422 1423 1423 1424 1425 1426 1428 1429 1430 1432 1434 1435 1437 1438 1440 1441 1442 1444 1446 1448 1450 1451 1452 1453 1455 1456 1457 1458 1460 1461 1462 1463 1464 1464 1465 1466 1466 1466 1466 1466 1466 1466 1465 1465 1464 1463 1463 1462 1461 1460 1459 1457 1455 1454 1452 1450 1447 1445 1442 1439 1435 1431 1426 1421 1415 1408 1401 1393 1385 1379 1375 1373 1370 1368 1367 1366 1365 1365 1364 1363 1361 1361 1361
1421 1421 1422 1422 1422 1423 1424 1425 1427 1429 1430 1432 1433 1435 1437 1438 1440 1441 1443 1444 1446 1448 1449 1451 1453 1454 1455 1456 1457 1458 1459 1460 1461 1462 1463 1463 1464 1464 1464 1465 1465 1465 1464 1464 1463 1462 1462 1461 1461 1460 1459 1458 1457 1455 1454 1452 1450 1448 1446 1443 1440 1436 1431 1427 1422 1416 1410 1404 1397 1389 1381 1374 1370 1368 1365 1362 1361 1360 1359 1359 1359 1357 1356 1355 1355
1423 1422 1422 1422 1422 1422 1423 1425 1426 1428 1430 1432 1433 1435 1437 1439 1440 1442 1444 1446 1447 1449 1450 1452 1454 1455 1456 1457 1457 1458 1459 1460 1461 1461 1462 1462 1463 1463 1463 1463 1463 1463 1462 1461 1460 1460 1460 1460 1459 1458 1457 1456 1455 1453 1452 1450 1448 1446 1445 1442 1438 1434 1429 1424 1419 1413 1407 1401 1394 1387 1378 1371 1367 1364 1361 1358 1356 1355 1354 1354 1353 1352 1351 1352 1353
1423 1423 1422 1422 1422 1422 1423 1425 1427 1429 1431 1432 1434 1436 1438 1440 1441 1443 1445 1447 1448 1450 1451 1453 1454 1455 1456 1456 1457 1457 1458 1459 1459 1460 1460 1461 1461 1462 1462 1461 1461 1460 1459 1459 1459 1459 1459 1458 1457 1456 1455 1454 1453 1452 1450 1448 1446 1445 1443 1440 1436 1432 1428 1423 1418 1412 1406 1400 1393 1386 1378 1371 1365 1360 1357 1354 1352 1351 1350 1349 1348 1347 1347 1347 1348
1423 1423 1423 1423 1423 1423 1424 1425 1427 1429 1431 1433 1434 1436 1438 1440 1442 1443 1445 1447 1448 1450 1451 1452 1453 1454 1454 1455 1455 1456 1457 1458 1459 1459 1460 1460 1460 1460 1459 1459 1458 1458 1457 1457 1457 1457 1456 1456 1455 1454 1453 1452 1451 1451 1449 1447 1445 1444 1442 1439 1435 1431 1428 1423 1418 1412 1406 1399 1392 1386 1378 1371 1364 1357 1353 1350 1348 1347 1346 1345 1345 1345 1345 1344 1344
1423 1423 1423 1423 1423 1424 1424 1425 1427 1429 1431 1433 1434 1436 1437 1439 1441 1442 1444 1446 1447 1448 1449 1450 1451 1452 1453 1454 1455 1456 1457 1457 1458 1458 1458 1458 1458 1457 1457 1456 1456 1456 1456 1456 1455 1455 1454 1453 1452 1451 1451 1450 1450 1450 1448 1446 1444 1443 1441 1438 1434 1431 1428 1424 1420 1414 1408 1401 1394 1387 1379 1373 1365 1358 1352 1348 1346 1345 1343 1342 1341 1342 1342 1343 1343
1423 1423 1424 1424 1424 1425 1426 1426 1428 1429 1431 1433 1434 1436 1437 1439 1440 1442 1443 1445 1446 1447 1448 1449 1450 1451 1452 1453 1455 1455 1456 1456 1456 1456 1456 1456 1455 1455 1455 1455 1455 1455 1454 1454 1453 1452 1451 1450 1450 1449 1449 1449 1449 1449 1447 1445 1443 1442 1440 1437 1434 1431 1428 1425 1421 1416 1410 1404 1397 1390 1383 1378 1371 1363 1356 1350 1346 1344 1342 1339 1337 1337 1339 1342 1344
1424 1425 1425 1425 1426 1426 1427 1428 1429 1430 1432 1433 1435 1436 1438 1439 1441 1443 1444 1445 1446 1447 1448 1449 1450 1451 1452 1453 1454 1454 1455 1455 1455 1454 1454 1454 1454 1454 1454 1454 1454 1453 1452 1451 1450 1449 1448 1448 1448 1448 1448 1447 1447 1447 1445 1444 1442 1441 1439 1436 1433 1431 1429 1425 1421 1417 1413 1408 1402 1396 1389 1384 1379 1373 1365 1358 1351 1347 1344 1339 1337 1337 1339 1342 1345
1425 1426 1426 1427 1428 1428 1428 1430 1431 1432 1434 1435 1436 1438 1439 1440 1442 1443 1444 1445 1446 1447 1448 1450 1451 1452 1453 1453 1453 1453 1453 1453 1453 1453 1453 1453 1453 1453 1453 1453 1452 1451 1450 1449 1447 1447 1446 1446 1447 1447 1446 1445 1445 1445 1443 1442 1441 1440 1438 1435 1433 1431 1429 1425 1422 1418 1414 1410 1406 1402 1396 1391 1385 1380 1375 1369 1362 1356 1352 1349 1347 1348 1350 1352 1354
1424 1426 1427 1428 1428 1429 1430 1431 1432 1433 1435 1436 1437 1439 1440 1441 1442 1444 1445 1446 1447 1448 1449 1450 1451 1451 1452 1452 1452 1452 1452 1452 1453 1453 1453 1453 1452 1452 1451 1450 1449 1448 1447 1447 1446 1446 1446 1446 1446 1446 1444 1443 1443 1442 1441 1439 1439 1438 1437 1435 1433 1431 1429 1426 1423 1419 1416 1413 1410 1406 1402 1398 1393 1388 1383 1379 1374 1369 1365 1362 1361 1361 1363 1365 1366
1421 1424 1426 1427 1428 1430 1431 1432 1433 1434 1436 1437 1438 1439 1440 1442 1443 1444 1445 1446 1447 1448 1449 1449 1450 1450 1451 1451 1452 1452 1452 1452 1452 1452 1452 1451 1451 1450 1449 1448 1448 1447 1447 1446 1446 1446 1446 1446 1446 1445 1443 1442 1441 1440 1439 1438 1437 1437 1435 1434 1433 1431 1429 1427 1424 1422 1419 1416 1413 1410 1407 1403 1399 1395 1391 1388 1385 1381 1377 1374 1372 1372 1372 1373 1374
1419 1421 1423 1425 1427 1429 1431 1432 1434 1435 1436 1437 1438 1439 1441 1442 1443 1444 1445 1446 1446 1447 1448 1448 1449 1449 1450 1450 1450 1451 1451 1451 1451 1451 1451 1450 1450 1449 1448 1448 1447 1447 1446 1446 1446 1446 1446 1445 1445 1444 1442 1441 1439 1438 1437 1436 1436 1435 1434 1433 1432 1431 1429 1427 1425 1424 1422 1419 1416 1414 1411 1408 1404 1401 1398 1395 1393 1390 1388 1386 1384 1382 1382 1381 1381
1418 1419 1422 1424 1426 1428 1430 1432 1433 1435 1436 1437 1438 1439 1440 1441 1442 1443 1444 1445 1445 1446 1447 1447 1448 1448 1448 1449 1449 1449 1450 1450 1450 1450 1450 1449 1449 1449 1448 1448 1447 1447 1446 1446 1445 1445 1445 1444 1443 1442 1441 1440 1438 1437 1435 1434 1434 1434 1433 1433 1432 1431 1429 1427 1426 1425 1423 1421 1419 1417 1415 1412 1410 1407 1404 1401 1399 1396 1395 1394 1393 1391 1390 1390 1390
1418 1419 1422 1424 1426 1428 1430 1432 1433 1435 1436 1437 1438 1439 1440 1441 1442 1443 1444 1444 1445 1445 1446 1446 1447 1447 1448 1448 1449 1449 1449 1449 1449 1449 1449 1448 1448 1448 1448 1448 1447 1447 1446 1445 1445 1445 1444 1443 1441 1441 1440 1439 1437 1436 1434 1433 1433 1432 1432 1432 1431 1430 1428 1427 1426 1425 1423 1422 1420 1419 1417 1415 1414 1411 1409 1406 1404 1402 1400 1399 1398 1397 1396 1396 1396
1421 1422 1424 1426 1428 1430 1431 1433 1434 1435 1436 1437 1439 1440 1441 1442 1443 1443 1444 1444 1445 1445 1446 1446 1447 1447 1448 1448 1448 1449 1449 1449 1448 1448 1448 1447 1447 1448 1448 1447 1447 1447 1446 1445 1444 1444 1443 1442 1440 1440 1439 1438 1436 1435 1433 1432 1432 1432 1432 1431 1430 1429 1428 1426 1425 1424 1423 1421 1420 1419 1418 1416 1415 1413 1412 1410 1408 1406 1404 1403 1402 1401 1400 1399 1399
1425 1426 1427 1429 1430 1432 1433 1434 1435 1436 1438 1439 1440 1441 1442 1443 1444 1444 1445 1445 1446 1446 1447 1447 1448 1448 1449 1448 1448 1448 1448 1448 1447 1447 1447 1447 1447 1447 1447 1446 1446 1446 1445 1444 1444 1443 1442 1441 1440 1439 1438 1437 1435 1434 1433 1431 1431 1431 1431 1430 1430 1429 1427 1426 1424 1423 1422 1421 1419 1418 1417 1416 1415 1414 1413 1411 1409 1408 1406 1405 1405 1404 1403 1402 1402
1431 1431 1431 1432 1433 1434 1436 1437 1438 1439 1440 1441 1442 1443 1444 1445 1445 1446 1447 1447 1448 1448 1448 1448 1448 1449 1449 1448 1448 1448 1448 1447 1447 1447 1447 1446 1446 1446 1445 1445 1445 1444 1444 1444 1443 1442 1442 1440 1439 1438 1437 1436 1435 1434 1432 1431 1431 1430 1430 1430 1430 1428 1427 1425 1424 1422 1421 1420 1419 1418 1416 1415 1414 1413 1412 1411 1410 1409 1408 1407 1406 1405 1405 1404 1404